Back to catalog

PEGASUS DEB

AlivePO
NORAD 39307·DEBRIS·🇺🇸 United States

Launched May 19, 1994 from Vandenberg Space Force Base

Loading…

Next Passes (next 24 hours)

TLE

FreshSource: Space-Track

Epoch: Sep 14, 2026, 01:22 UTC

1 39307U 94029AES 26257.05694645  .00098839  00000-0  15137-2 0  9993
2 39307  81.9252 125.6510 0039908 141.3148 219.0975 15.53051276797351

Track PEGASUS DEB in real time with AllMySat

Download on the App Store